SCP
0 0 0 0 0 0 0 0 0 0 0 0 0 0 0 0 0 0 0 0 0 0 0 0 0 0 0 0 0 0 0 0 0 0 0 0 0 0 0 0 0 0 0 0
0 0 0 0 0 0 0 0 0 0 0 0 0 0 0 0 0 0 0 0 0 0 0 0 0 0 0 0 0 0 0 0 0 0 0 0 0 0 0 0 0 0 0 0
0 0 0 0 0 0 0 0 0 0 0 0 0 0 0 0 0 0 0 0 0 0 0 0 0 0 0 0 0 0 0 0 0 0 0 0 0 0 0 0 0 0 0 0
0 0 0 0 0 0 0 0 0 0 0 0 0 0 0 0 0 0 0 0 0 0 0 0 0 0 0 0 0 0 0 0 0 0 0 0 0 0 0 0 0 0 0 0
0 0 0 0 0 0 0 0 0 0 0 0 0 0 0 0 0 0 0 0 0 0 0 0 0 0 0 0 0 0 0 0 0 0 0 0 0 0 0 0 0 0 0 0
0 0 0 0 0 0 0 0 0 0 0 0 0 0 0 0 0 0 0 0 0 0 0 0 0 0 0 0 0 0 0 0 0 0 0 0 0 0 0 0 0 0 0 0
0 0 0 0 0 0 0 0 0 0 0 0 0 0 0 0 0 0 0 0 0 0 0 0 0 0 0 0 0 0 0 0 0 0 0 0 0 0 0 0 0 0 0 0
0 0 0 0 0 0 0 0 0 0 0 0 0 0 0 0 0 0 0 0 0 0 0 0 0 0 0 0 0 0 0 0 0 0 0 0 0 0 0 0 0 0 0 0
0 0 0 0 0 0 0 0 0 0 0 0 0 0 0 0 0 0 0 0 0 0 0 0 0 0 0 0 0 0 0 0 0 0 0 0 0 0 0 0 0 0 0 0
0 0 0 0 0 0 0 0 0 0 0 0 0 0 0 0 0 0 0 0 0 0 0 0 0 0 0 0 0 0 0 0 0 0 0 0 0 0 0 0 0 0 0 0
0 0 0 0 0 0 0 0 0 0 0 0 0 0 0 0 0 0 0 0 0 0 0 0 0 0 0 0 0 0 0 0 0 0 0 0 0 0 0 0 0 0 0 0
0 0 0 0 0 0 0 0 0 0 0 0 0 0 0 0 0 0 0 0 0 0 0 0 0 0 0 0 0 0 0 0 0 0 0 0 0 0 0 0 0 0 0 0
0 0 0 0 0 0 0 0 0 0 0 0 0 0 0 0 0 0 0 0 0 0 0 0 0 0 0 0 0 0 0 0 0 0 0 0 0 0 0 0 0 0 0 0
0 0 0 0 0 0 0 0 0 0 0 0 0 0 0 0 0 0 0 0 0 0 0 0 0 0 0 0 0 0 0 0 0 0 0 0 0 0 0 0 0 0 0 0
0 0 0 0 0 0 0 0 0 0 0 0 0 0 0 0 0 0 0 0 0 0 0 0 0 0 0 0 0 0 0 0 0 0 0 0 0 0 0 0 0 0 0 0
0 0 0 0 0 0 0 0 0 0 0 0 0 0 0 0 0 0 0 0 0 0 0 0 0 0 0 0 0 0 0 0 0 0 0 0 0 0 0 0 0 0 0 0
0 0 0 0 0 0 0 0 0 0 0 0 0 0 0 0 0 0 0 0 0 0 0 0 0 0 0 0 0 0 0 0 0 0 0 0 0 0 0 0 0 0 0 0
0 0 0 0 0 0 0 0 0 0 0 0 0 0 0 0 0 0 0 0 0 0 0 0 0 0 0 0 0 0 0 0 0 0 0 0 0 0 0 0 0 0 0 0
0 0 0 0 0 0 0 0 0 0 0 0 0 0 0 0 0 0 0 0 0 0 0 0 0 0 0 0 0 0 0 0 0 0 0 0 0 0 0 0 0 0 0 0
0 0 0 0 0 0 0 0 0 0 0 0 0 0 0 0 0 0 0 0 0 0 0 0 0 0 0 0 0 0 0 0 0 0 0 0 0 0 0 0 0 0 0 0
0 0 0 0 0 0 0 0 0 0 0 0 0 0 0 0 0 0 0 0 0 0 0 0 0 0 0 0 0 0 0 0 0 0 0 0 0 0 0 0 0 0 0 0
0 0 0 0 0 0 0 0 0 0 0 0 0 0 0 0 0 0 0 0 0 0 0 0 0 0 0 0 0 0 0 0 0 0 0 0 0 0 0 0 0 0 0 0
0 0 0 0 0 0 0 0 0 0 0 0 0 0 0 0 0 0 0 0 0 0 0 0 0 0 0 0 0 0 0 0 0 0 0 0 0 0 0 0 0 0 0 0
0 0 0 0 0 0 0 0 0 0 0 0 0 0 0 0 0 0 0 0 0 0 0 0 0 0 0 0 0 0 0 0 0 0 0 0 0 0 0 0 0 0 0 0
0 0 0 0 0 0 0 0 0 0 0 0 0 0 0 0 0 0 0 0 0 0 0 0 0 0 0 0 0 0 0 0 0 0 0 0 0 0 0 0 0 0 0 0
0 0 0 0 0 0 0 0 0 0 0 0 0 0 0 0 0 0 0 0 0 0 0 0 0 0 0 0 0 0 0 0 0 0 0 0 0 0 0 0 0 0 0 0
Wind_Speed
4 6 6 5 5 5 4 5 6 4 2 7 9 9 7 8 10 11 11 11 11 10 9 8 8 7 7 7 6 6 6 5 4 3 3 2 2 2 1 1 2 2 1 2
7 8 5 4 5 6 7 7 6 4 3 6 8 10 8 9 12 11 11 11 11 11 10 9 9 9 8 8 7 7 6 6 5 3 2 2 2 1 1 1 1 1 1 1
8 3 4 6 7 8 8 8 6 5 3 6 7 9 8 8 9 10 11 11 11 11 11 11 10 9 9 8 8 6 7 6 6 5 3 3 2 2 2 2 1 1 1 1
6 5 6 8 7 8 7 5 6 6 7 4 5 6 4 5 8 9 11 11 11 12 11 10 10 10 9 8 7 7 7 6 6 6 4 4 3 2 2 1 1 1 1 1
4 5 7 8 6 7 4 2 4 6 7 8 6 8 3 3 6 8 10 11 11 12 12 11 11 10 9 8 7 7 7 6 6 6 5 5 3 2 2 2 2 1 1 1
4 3 5 5 3 5 4 4 4 5 6 8 5 7 4 2 4 4 6 9 10 11 11 10 9 9 8 8 7 7 7 7 6 6 6 5 4 4 3 3 2 1 1 1
5 5 4 4 5 6 7 6 5 6 6 4 2 6 4 2 2 4 4 5 7 9 10 10 10 10 9 9 8 8 8 8 7 7 6 5 5 5 4 3 3 2 1 1
5 5 5 4 6 5 7 8 6 5 4 3 4 6 2 1 2 3 4 4 5 8 9 9 10 10 10 9 9 9 9 8 8 7 6 5 5 3 2 3 2 2 1 1
4 3 3 3 3 5 6 7 5 7 6 6 4 4 3 2 3 3 2 3 5 6 8 9 9 9 9 9 9 9 9 8 7 7 6 5 5 4 3 3 3 2 1 1
5 5 2 3 4 2 5 4 5 6 6 6 5 5 3 2 2 1 2 3 4 5 6 7 8 8 8 8 8 8 8 8 7 7 6 4 5 4 4 4 4 3 2 2
5 6 4 5 7 6 6 6 6 6 6 6 5 1 1 2 3 3 1 2 3 4 5 6 6 7 7 8 8 8 8 7 7 7 6 6 5 5 4 4 4 3 3 3
3 5 6 5 2 3 6 7 8 8 7 7 7 3 2 2 3 3 2 1 1 3 4 5 6 6 7 8 8 8 8 7 7 6 6 6 6 5 5 5 4 4 3 3
2 5 6 5 6 5 5 5 7 8 8 8 9 4 2 1 2 2 2 1 1 2 3 4 5 6 7 7 8 8 7 7 7 6 6 6 6 6 5 5 4 4 4 4
5 6 8 8 5 3 5 6 7 9 9 10 11 9 6 5 5 4 3 2 1 2 3 4 5 5 6 7 7 7 7 7 7 7 7 7 6 6 5 5 4 4 4 4
4 7 7 8 7 6 8 9 9 11 12 12 10 10 9 8 6 5 4 3 2 3 4 4 5 5 5 6 6 7 7 7 7 7 7 6 6 5 5 5 4 4 4 4
4 5 6 7 6 6 9 10 10 11 11 12 12 11 8 6 5 4 3 3 3 3 3 4 5 5 6 6 6 6 6 7 7 7 7 6 6 6 6 5 5 4 4 4
4 5 6 7 5 7 9 8 9 9 8 10 11 8 6 5 4 3 3 2 2 2 2 3 5 5 5 5 6 6 6 6 7 7 7 7 7 6 6 5 5 5 5 4
6 6 4 6 6 9 3 2 4 6 6 7 8 7 6 5 3 1 1 1 2 2 3 3 3 4 4 5 5 5 6 6 7 6 6 6 6 6 6 6 5 5 5 4
7 6 5 5 7 8 4 2 3 5 4 4 5 4 4 3 3 2 2 2 2 2 3 2 2 3 4 5 5 6 6 6 6 6 5 6 6 6 6 6 5 5 4 4
5 7 7 7 8 7 3 2 4 7 5 3 3 3 3 2 4 1 2 2 2 3 3 2 1 2 3 4 5 6 6 6 5 5 5 5 5 5 5 5 5 4 4 4
3 4 7 8 8 5 3 3 3 6 2 3 3 3 3 4 4 3 2 2 2 2 2 2 1 1 2 4 5 6 5 5 4 4 4 4 4 5 4 4 4 4 3 3
4 4 5 6 7 4 4 0 1 4 4 4 4 4 4 4 3 3 3 2 2 2 1 1 1 1 2 3 4 5 4 3 3 4 4 4 4 4 4 4 4 4 4 4
4 4 3 4 2 3 1 1 3 4 4 5 5 5 4 4 4 4 4 3 3 3 2 2 1 2 2 4 4 4 3 3 4 4 4 4 4 4 4 4 4 4 4 3
3 3 5 5 5 4 3 4 5 5 6 6 6 5 4 4 5 4 4 4 3 3 2 2 2 3 3 4 4 4 3 4 4 4 3 3 4 4 3 3 3 3 4 4
5 4 6 8 7 6 6 6 6 7 7 6 6 6 5 5 5 5 4 4 4 3 3 3 3 4 4 4 4 4 4 5 4 4 3 3 3 3 3 3 2 3 3 2
7 8 8 7 7 8 8 7 8 8 8 7 7 6 6 5 6 6 5 5 4 4 4 4 4 4 4 4 4 4 5 5 5 4 3 2 2 2 2 2 2 1 2 2
Wind_Direction
194 215 217 217 227 254 250 251 254 253 216 234 246 253 237 208 214 218 213 208 207 205 196 187 186 187 185 182 183 175 171 166 159 158 164 156 152 141 116 76 50 53 33 37
200 219 229 226 217 233 241 246 250 240 219 250 262 260 248 225 221 223 222 215 211 205 195 189 191 189 190 186 189 185 181 176 172 173 174 164 152 142 109 106 85 44 32 31
221 207 202 212 215 229 238 247 255 261 242 235 268 256 233 221 224 225 228 225 217 209 202 194 194 192 191 190 194 192 187 182 177 167 160 149 143 149 152 155 128 54 33 38
226 220 209 218 224 237 240 242 255 250 254 253 253 275 237 218 218 218 218 217 216 208 206 199 195 194 196 193 192 194 190 187 179 173 178 178 184 182 175 175 147 122 76 77
206 208 216 224 228 232 246 240 239 249 257 264 236 261 257 208 227 225 219 214 212 207 202 200 197 196 197 191 190 193 189 187 180 186 184 197 196 185 165 165 151 155 129 104
232 220 238 234 219 217 192 196 197 222 244 250 242 252 268 223 247 244 223 215 209 203 198 197 193 191 192 187 185 186 188 186 182 187 191 197 191 186 177 178 169 176 154 147
212 201 202 217 207 192 213 237 236 222 220 240 199 245 262 319 288 272 256 225 203 197 194 192 189 187 187 186 184 185 186 185 184 189 195 195 198 194 193 187 181 187 178 170
229 206 187 206 232 224 215 237 256 271 266 264 205 242 265 360 300 272 255 228 198 192 194 192 190 190 187 186 187 188 189 188 185 189 192 194 194 200 200 194 189 191 197 188
249 215 152 189 229 242 219 223 263 276 275 272 241 241 263 243 253 245 230 205 198 189 190 192 189 190 189 186 187 191 189 189 187 189 186 185 191 194 194 195 197 195 195 186
270 255 195 180 187 207 254 224 221 245 265 262 249 253 264 258 280 243 216 205 201 190 189 191 188 189 189 187 186 187 189 191 188 188 187 184 190 190 198 200 200 196 189 188
255 252 211 196 219 223 193 208 228 242 255 270 271 244 27 312 329 320 289 230 209 193 192 191 189 187 184 180 180 183 185 188 186 189 189 188 186 189 195 203 203 203 196 192
246 262 248 234 236 277 245 233 233 244 242 249 272 270 77 301 310 307 303 254 194 189 187 185 183 182 181 181 181 184 185 186 186 187 188 192 183 190 197 198 199 204 203 199
233 247 251 219 194 189 220 230 239 249 256 247 250 247 108 278 300 299 283 251 179 183 179 180 183 186 185 182 181 182 187 185 182 183 189 190 189 192 197 197 191 197 196 198
262 251 257 264 280 254 239 234 231 238 247 251 248 264 272 283 293 296 286 269 235 197 187 188 190 191 190 184 183 181 183 181 180 182 189 194 196 197 195 193 192 195 194 196
258 259 260 270 275 263 261 255 236 239 253 263 268 269 278 288 291 288 280 265 235 210 199 198 199 194 189 188 187 184 180 179 180 183 191 196 197 196 194 191 194 195 195 200
277 264 266 261 256 259 263 263 254 250 255 259 265 270 284 294 292 288 284 277 245 224 214 208 201 198 195 191 191 185 180 180 182 187 192 188 193 190 192 195 197 198 199 203
255 253 260 264 266 267 260 260 253 248 248 250 257 273 291 289 292 300 305 295 284 277 257 229 210 204 202 197 192 188 181 179 185 188 188 185 191 192 195 193 196 199 204 206
251 250 259 270 260 252 291 346 271 253 270 271 268 277 287 290 290 301 347 325 308 306 286 264 233 211 203 196 189 184 178 181 186 189 186 186 190 191 193 196 200 203 209 209
239 243 245 253 257 261 256 267 269 252 258 303 285 286 295 297 242 165 61 356 339 332 314 287 261 221 195 186 182 176 176 180 186 188 186 187 191 192 192 198 203 206 209 214
205 228 240 241 253 260 289 328 293 255 244 1 325 305 299 269 250 235 32 352 346 355 354 344 291 219 188 178 178 176 174 181 189 189 188 185 191 193 194 199 201 201 207 215
195 209 226 242 252 265 344 337 259 244 318 13 338 327 297 273 311 346 348 340 348 356 358 354 299 224 188 177 181 182 179 187 183 176 180 182 187 190 191 194 195 193 198 207
245 232 229 236 242 247 42 354 271 339 1 349 338 332 323 318 333 326 307 313 318 324 331 332 272 224 186 180 188 191 187 176 166 167 178 179 178 181 184 185 191 196 197 206
238 259 274 255 279 20 16 321 333 327 318 325 321 321 323 318 311 304 298 294 286 279 285 292 268 226 197 190 197 201 186 171 169 174 177 177 177 180 186 186 189 197 205 212
238 258 252 258 258 282 295 298 306 302 304 306 307 308 301 296 296 295 292 287 280 272 276 273 247 228 214 200 204 206 184 181 183 184 181 181 186 183 188 195 200 204 209 212
264 251 252 260 270 276 271 281 293 297 299 300 300 292 288 288 284 285 284 282 278 273 268 257 244 234 224 208 201 196 186 184 190 190 188 190 192 192 197 202 211 219 221 230
243 251 256 265 278 280 288 298 295 290 289 290 291 289 282 279 280 279 279 276 271 270 269 258 248 236 224 214 207 194 189 189 191 191 191 193 194 194 194 193 181 148 212 186